Location: Innsbruck
(47.2657°N, 11.3914°E)
Time: 12:05:19
(UTC+01:00)

XW-2F - Pass Details

Date: 10 December 2021
Orbit: 495 x 515 km, 97.5° (Epoch: 16 January)

Event Time Altitude Azimuth Distance (km) Brightness Sun altitude
Rises 16:59:14 0° 147° (SSE) 2,611 ? -5.9°
Reaches altitude 10° 17:01:23 10° 140° (SE) 1,734 ? -6.3°
Maximum altitude 17:04:53 39° 71° (ENE) 791 ? -6.8°
Drops below altitude 10° 17:08:25 10° 2° (N) 1,755 ? -7.3°
Sets 17:10:36 0° 354° (N) 2,649 ? -7.7°
